Location: Newark
(52.8300°N, 8.0000°E)
Time: 09:45:14
(UTC+00:00)

STARLINK-1103 - Pass Details

Date: 01 February 2020
Orbit: 537 x 539 km, 53.0° (Epoch: 19 February)

Event Time Altitude Azimuth Distance (km) Brightness Sun altitude
Rises 17:46:56 0° 285° (WNW) 2,698 8.4 -14.4°
Reaches altitude 10° 17:49:30 10° 271° (W) 1,804 7.6 -14.7°
Maximum altitude 17:52:43 22° 219° (SW) 1,197 5.9 -15.2°
Drops below altitude 10° 17:55:55 10° 167° (SSE) 1,799 6.2 -15.7°
Sets 17:58:29 0° 153° (SSE) 2,689 6.9 -16.1°
Enters shadow 17:58:34 - 152° (SSE) 2,724 7.0 -16.1°
